Starlink 35229

operational
NORAD ID: 65600 Int'l Des: 2025-207 Owner: SPXS Country: US Constellation: starlink
NOTLE

Starlink 35229について

説明を読み込み中...

リアルタイム位置

3D地球を読み込み中...

次回通過

高度履歴

Altitude vs Time

uPlot chart will show altitude changes over time

軌道要素

1 65600U 25207J 25308.90369273 .00020968 00000-0 53836-3 0 9993
2 65600 97.6026 13.1586 0001518 107.0766 253.0645 15.39342603 9320
Epoch: Nov 4, 2025 • Age: 9 hours

現在のステータス

高度 461.4 km
速度 7.63 km/s
衛星直下点 -33.32°S, 129.76°W
打ち上げ日 Sep 13, 2025
運用期間 0.1 years
タイプ internet

技術仕様

分類 Payload
質量 575.00 kg
乾燥質量 530.00 kg
総質量 575.00 kg
長さ 0.30 m
直径 4.10 m
スパン 29.00 m
形状 Box + pan
製造者 SPXS
バスタイプ Starlink V2MO
フェーズステータス In Orbit
所有者/国 SPXS/US

大規模コンステレーション

Loading constellations...